Weather in Fier

Albania     40°43′10″N   19°33′30″E
temp.,
°C
wind,
m/s
gust,
m/s
humid.,
%
clouds,
%
prec.,
mm/h
press.,
hPa
HPBL,
m
8 august, mon
mon823:00+26ese335015 0.0 101037
02:00+26sse225236 0.0 101128
05:00+25ene225595 0.0 101111
08:00+29e34381 0.0 1012257
11:00+34nnw332741 0.0 10112543
14:00+32n673588 0.0 1011829
17:00+30nnw5741100 0.0 1011280
20:00+25wnw34725 0.0 101252
9 august, tue
tue923:00+24w228474 0.0 101332
02:00+24sw228260 0.0 101326
05:00+23nnw01865 0.0 101211
08:00+27ne11665 0.0 1013320
11:00+32nw53455 0.0 1012914
14:00+31nw775031 0.0 1012693
17:00+29wnw555714 0.0 1012761
20:00+25nw227764 0.0 101239
10 august, wed
wed1023:00+23wnw33865 0.0 101342
02:00+23e22915 0.0 101225
05:00+22ene227610 0.0 101133
08:00+27nne45515 0.0 1012321
11:00+33nnw43293 0.0 1011925
14:00+33nw873416 0.0 1011680
17:00+30nw57535 0.0 1011528
20:00+24w22765 0.0 101126
11 august, thu
thu1123:00+24s22746 0.0 101127
02:00+23e22635 0.0 101124
05:00+23ne335736 0.0 101144
08:00+27ne3341100 0.0 1011238
11:00+31nnw64342 0.0 1011932
14:00+32nw77335 0.0 1011838
17:00+30nw67445 0.0 1012594
20:00+24n237357 0.0 101233
12 august, fri
fri1223:00+23nne2273100 0.0 101325
02:00+22nne2270100 0.0 101340
05:00+22ne2264100 0.0 101334
08:00+26ne23462 0.0 1013272
11:00+30nw54360 0.0 1013868
14:00+30nw76434 0.0 1013765
17:00+29nnw55476 0.0 1013694
20:00+24nnw22635 0.0 101313